Location: Innsbruck
(47.2657°N, 11.3914°E)
Time: 02:05:35
(UTC+01:00)

XW-2F - Pass Details

Date: 11 December 2021
Orbit: 495 x 515 km, 97.5° (Epoch: 16 January)

Event Time Altitude Azimuth Distance (km) Brightness Sun altitude
Rises 18:15:23 0° 193° (SSW) 2,610 ? -17.9°
Reaches altitude 10° 18:17:41 10° 205° (SSW) 1,733 ? -18.3°
Maximum altitude 18:20:54 27° 265° (W) 1,020 ? -18.8°
Drops below altitude 10° 18:24:09 10° 324° (NW) 1,754 ? -19.4°
Sets 18:26:30 0° 337° (NNW) 2,649 ? -19.8°
